This demonstration page uses our WeatherBlox Daily Observations layout. Learn more.

Left ArrowRight Arrow

40.92945, -100.16068

Hourly Observations for March 16, 2021

Temp ( °F °C ) Dew Point ( °F °C ) Humidity (%) Winds ( mph kmh ) Pressure ( in mb ) Visibility ( mi km ) Precip ( " mm )
12:15 am 00:15 Cloudy 39 4.1 38 3.5 96 96 SE 5 7 29.88 1012 10 16 N/A
12:35 am 00:35 Cloudy 39 4 38 3.2 95 95 N N/A 29.87 1011 10 16 N/A
12:55 am 00:55 Mostly Cloudy 39 3.7 38 3.1 96 96 SE 6 9 29.87 1012 10 16 N/A
1:15 am 01:15 Partly Cloudy 38 3.5 37 3 97 97 SE 6 9 29.87 1012 10 16 N/A
1:35 am 01:35 Mostly Cloudy with Mist and Fog 38 3.2 37 2.8 97 97 ESE 7 11 29.86 1011 2 3 N/A
1:55 am 01:55 Cloudy with Fog 38 3.1 37 2.9 99 99 ESE 8 13 29.87 1011 1 1 N/A
2:15 am 02:15 Cloudy with Fog 37 3 37 2.6 97 97 SE 7 11 29.87 1011 0 0 N/A
2:35 am 02:35 Cloudy with Fog 37 2.8 37 2.5 98 98 SSE 6 9 29.87 1011 0 0 N/A
2:55 am 02:55 Cloudy with Fog 36 2.4 36 2.1 98 98 SSE 8 13 29.88 1012 1 1 N/A
3:15 am 03:15 Cloudy with Fog 37 2.5 36 2.3 99 99 S 10 17 29.88 1012 1 1 N/A
3:35 am 03:35 Cloudy with Fog 37 2.6 37 2.5 99 99 S 9 15 29.88 1012 1 1 N/A
3:55 am 03:55 Cloudy with Mist and Fog 37 2.6 37 2.5 99 99 SSE 6 9 29.88 1012 1 1 N/A
4:15 am 04:15 Cloudy with Mist and Fog 37 2.7 37 2.5 99 99 SE 3 6 29.87 1012 1 1 N/A
4:35 am 04:35 Cloudy with Mist and Fog 37 3 37 2.9 99 99 S 5 7 29.87 1011 2 3 N/A
4:55 am 04:55 Cloudy 37 3 37 2.9 99 99 SE 3 6 29.87 1011 7 11 N/A
5:15 am 05:15 Cloudy 37 3 37 2.8 99 99 N N/A 29.87 1011 7 11 N/A
5:35 am 05:35 Cloudy 38 3.1 37 2.9 99 99 SSW 3 6 29.88 1012 7 11 N/A
5:55 am 05:55 Cloudy with Mist and Fog 37 2.9 37 2.6 98 98 SSW 5 7 29.89 1012 5 8 N/A
6:15 am 06:15 Cloudy with Mist and Fog 37 2.8 37 2.6 99 99 S 3 6 29.89 1012 2 3 N/A
6:35 am 06:35 Cloudy with Mist and Fog 37 2.8 37 2.6 99 99 N N/A 29.89 1012 5 8 N/A
6:55 am 06:55 Cloudy with Mist and Fog 37 3 37 2.7 98 98 N N/A 29.89 1012 4 6 N/A
7:15 am 07:15 Cloudy with Mist and Fog 37 3 37 2.7 98 98 N N/A 29.88 1012 3 5 N/A
7:35 am 07:35 Cloudy with Mist and Fog 37 3 37 2.8 99 99 N N/A 29.89 1012 5 8 N/A
7:55 am 07:55 Cloudy with Mist and Fog 38 3.2 37 3 99 99 WNW 3 6 29.90 1012 3 4 N/A
8:15 am 08:15 Cloudy with Mist and Fog 38 3.3 38 3.1 99 99 W 5 7 29.90 1013 1 2 N/A
8:35 am 08:35 Cloudy with Fog 38 3.2 37 3 99 99 WNW 5 7 29.91 1013 1 1 N/A
8:55 am 08:55 Cloudy with Fog 38 3.3 38 3.1 99 99 N N/A 29.90 1013 0 0 N/A
9:15 am 09:15 Cloudy with Fog 38 3.3 38 3.1 99 99 N N/A 29.90 1013 0 0 N/A
9:35 am 09:35 Cloudy with Mist and Fog 38 3.5 38 3.3 99 99 N N/A 29.90 1013 1 2 N/A
9:55 am 09:55 Cloudy with Mist and Fog 39 3.7 38 3.5 99 99 W 5 7 29.91 1013 1 2 N/A
10:15 am 10:15 Cloudy with Mist and Fog 38 3.5 38 3.1 97 97 NW 12 19 29.92 1013 3 5 N/A
10:35 am 10:35 Cloudy 39 3.8 38 3.1 95 95 NW 12 19 29.93 1014 10 16 N/A
10:55 am 10:55 Cloudy 39 4 37 3 93 93 NW 9 15 29.93 1013 10 16 N/A
11:15 am 11:15 Cloudy 40 4.3 37 2.8 90 90 NW 10 17 29.92 1013 10 16 N/A
11:35 am 11:35 Cloudy 40 4.5 37 2.8 89 89 NNW 10 17 29.93 1014 10 16 N/A
11:55 am 11:55 Cloudy 40 4.2 36 2.3 88 88 NNW 12 19 29.94 1014 10 16 N/A
12:15 pm 12:15 Cloudy 39 4 36 2.3 89 89 NNW 16 26 29.94 1014 10 16 N/A
12:35 pm 12:35 Cloudy 40 4.3 36 2 85 85 NNW 13 20 29.94 1014 10 16 N/A
12:55 pm 12:55 Cloudy 41 4.8 35 1.4 79 79 NNW 12 19 29.94 1014 10 16 N/A
1:15 pm 13:15 Cloudy 41 4.9 35 1.9 81 81 NW 16 26 29.94 1014 10 16 N/A
1:35 pm 13:35 Cloudy 41 5 34 1.3 77 77 NNW 12 19 29.94 1014 10 16 N/A
1:55 pm 13:55 Cloudy 41 5.1 33 0.6 73 73 N 10 17 29.93 1013 10 16 N/A
2:15 pm 14:15 Cloudy 42 5.3 33 0.8 73 73 NNW 17 28 29.92 1013 10 16 N/A
2:35 pm 14:35 Cloudy 41 5.2 34 1 75 75 N 10 17 29.92 1013 10 16 N/A
2:55 pm 14:55 Mostly Cloudy 42 5.7 34 1.1 73 73 N 13 20 29.90 1013 10 16 N/A
3:15 pm 15:15 Mostly Cloudy 42 5.6 33 0.4 70 70 NW 14 22 29.91 1013 10 16 N/A
3:35 pm 15:35 Cloudy 44 6.5 35 1.7 72 72 NNW 15 24 29.89 1012 10 16 N/A
3:55 pm 15:55 Cloudy 44 6.5 35 1.5 71 71 N 12 19 29.89 1012 10 16 N/A
4:15 pm 16:15 Cloudy 44 6.6 34 1 68 68 N 14 22 29.89 1012 10 16 N/A
4:35 pm 16:35 Cloudy 43 6.2 33 0.4 67 67 N 10 17 29.89 1012 10 16 N/A
4:55 pm 16:55 Mostly Cloudy 44 6.4 32 undefined 64 64 N 10 17 29.89 1012 10 16 N/A
5:15 pm 17:15 Mostly Cloudy 44 6.9 33 0.7 65 65 N 14 22 29.89 1012 10 16 N/A
5:35 pm 17:35 Partly Cloudy 44 6.9 32 0.2 63 63 NNW 14 22 29.88 1012 10 16 N/A
5:55 pm 17:55 Partly Cloudy 44 6.4 33 0.3 65 65 NNW 13 20 29.89 1012 10 16 N/A
6:15 pm 18:15 Partly Cloudy 43 6.2 32 0.1 65 65 N 13 20 29.91 1013 10 16 N/A
6:35 pm 18:35 Mostly Cloudy 43 5.9 32 undefined 66 66 NW 15 24 29.92 1013 10 16 N/A
6:55 pm 18:55 Partly Cloudy 42 5.6 32 -0.2 67 67 NNW 13 20 29.93 1014 10 16 N/A
7:15 pm 19:15 Sunny 41 5.1 32 undefined 70 70 NNW 13 20 29.95 1014 10 16 N/A
7:35 pm 19:35 Partly Cloudy 40 4.3 32 undefined 74 74 NW 13 20 29.97 1015 10 16 N/A
7:55 pm 19:55 Mostly Cloudy 38 3.6 32 -0.2 76 76 NNW 10 17 29.99 1016 10 16 N/A
8:15 pm 20:15 Mostly Cloudy 37 2.9 31 -0.5 79 79 NW 12 19 30.01 1016 10 16 N/A
8:35 pm 20:35 Partly Cloudy 36 2.2 31 -0.8 81 81 NNW 12 19 30.04 1017 10 16 N/A
8:55 pm 20:55 Mostly Cloudy 36 2 31 -0.8 82 82 NW 10 17 30.05 1018 10 16 N/A
9:15 pm 21:15 Cloudy 36 2 31 -0.7 83 83 NNW 9 15 30.07 1018 10 16 N/A
9:35 pm 21:35 Cloudy 37 2.5 30 -0.9 79 79 N 9 15 30.06 1018 10 16 N/A
9:55 pm 21:55 Cloudy 37 2.5 31 -0.6 80 80 NNW 5 7 30.06 1018 10 16 N/A
10:15 pm 22:15 Cloudy 37 2.5 31 -0.3 82 82 N 5 7 30.05 1018 10 16 N/A
10:35 pm 22:35 Cloudy 37 2.5 31 -0.6 80 80 N 6 9 30.05 1018 10 16 N/A
10:55 pm 22:55 Cloudy 37 2.5 31 -0.6 80 80 NNW 7 11 30.05 1018 10 16 N/A
11:15 pm 23:15 Cloudy 36 2.2 31 -0.4 83 83 NNW 8 13 30.06 1018 10 16 N/A
11:35 pm 23:35 Cloudy 36 2.1 30 -1.2 79 79 NNW 9 15 30.06 1018 10 16 N/A
11:55 pm 23:55 Cloudy 36 2 30 -1.3 79 79 NNW 9 15 30.07 1018 10 16 N/A

Powered by AerisWeather